Date String (YYYY-MM-DD hh:mm:ss) UTC,Instrument flags,Ambient pressure (hPa),Sample flow (lpm),Bypass flow (lpm),Sample temperature (°C),Ambient temperature (°C),ASC tube jacket temperature (°C),LED temperature (°C),Box temperature (°C),Sample RH (%),Span deviation,Mass concentration (μg/m³),Mass concentration (μg/m³),Mass concentration (μg/m³)
DateTimeUTC,F1_M11,P_M11,Q1_M11,Q2_M11,T1_M11,T2_M11,T3_M11,T4_M11,T5_M11,U1_M11,ZSPAN_M11,X0_M11,X2_M11,X1_M11
2023-02-06 04:00:00,,0816.9,4.98,0.00,24.1,22.7,00.0,33.0,25.9,12.2,0000.0,0017.32,0010.57,0009.49
2023-02-06 04:01:00,,0817.0,5.03,0.00,24.1,22.7,00.0,33.0,25.9,12.2,0000.0,0017.00,0010.53,0009.49
2023-02-06 04:02:00,,0817.0,4.95,0.00,24.1,22.7,00.0,33.0,25.9,12.2,0000.4,0016.95,0010.52,0009.49
2023-02-06 04:03:00,,0817.0,5.03,0.00,24.1,22.7,00.0,33.0,25.9,11.7,0000.0,0016.09,0010.52,0009.49
2023-02-06 04:04:00,,0817.0,4.96,0.00,24.1,22.6,00.0,33.0,25.9,11.6,0000.0,0015.82,0010.49,0009.48
2023-02-06 04:05:00,,0816.9,5.05,0.00,24.1,22.5,00.0,33.0,25.9,11.7,0000.0,0015.51,0010.45,0009.48
2023-02-06 04:06:00,,0816.9,4.96,0.00,24.1,22.5,00.0,33.0,25.9,11.8,0001.2,0015.37,0010.42,0009.47
2023-02-06 04:07:00,,0816.9,5.05,0.00,24.1,22.5,00.0,33.0,25.8,11.7,0001.6,0015.26,0010.33,0009.45
2023-02-06 04:08:00,,0816.8,4.96,0.00,24.1,22.6,00.0,33.0,25.8,11.2,0000.0,0015.14,0010.32,0009.44
2023-02-06 04:09:00,,0816.9,5.04,0.00,24.1,22.6,00.0,33.0,25.9,10.6,0000.6,0015.17,0010.20,0009.37
2023-02-06 04:10:00,,0816.9,4.96,0.00,24.1,22.6,00.0,33.0,25.9,10.9,0003.6,0014.60,0010.04,0009.30
2023-02-06 04:11:00,,0816.9,5.04,0.00,24.1,22.6,00.0,33.0,25.8,10.8,0004.6,0013.78,0009.91,0009.24
2023-02-06 04:12:00,,0816.9,4.97,0.00,24.1,22.6,00.0,33.0,25.8,10.8,0005.0,0014.18,0009.89,0009.19
2023-02-06 04:13:00,,0816.9,5.01,0.00,24.1,22.7,00.0,33.0,25.8,10.5,0004.9,0014.41,0009.74,0009.05
2023-02-06 04:14:00,,0816.8,5.02,0.00,24.0,22.6,00.0,33.0,25.8,10.7,0004.9,0014.55,0009.61,0008.91
2023-02-06 04:15:00,,0816.9,4.98,0.00,24.0,22.4,00.0,33.0,25.7,10.8,0004.9,0014.98,0009.54,0008.82
2023-02-06 04:16:00,,0816.9,5.03,0.00,24.0,22.3,00.0,33.0,25.7,11.2,0004.5,0015.38,0009.56,0008.78
2023-02-06 04:17:00,,0816.8,4.96,0.00,24.0,22.3,00.0,32.9,25.7,10.9,0004.4,0015.45,0009.54,0008.74
2023-02-06 04:18:00,,0817.0,5.02,0.00,24.0,22.4,00.0,32.9,25.7,10.2,0004.3,0015.42,0009.35,0008.56
2023-02-06 04:19:00,,0817.1,4.97,0.00,24.0,22.4,00.0,32.9,25.7,09.7,0004.1,0015.11,0009.04,0008.25
2023-02-06 04:20:00,,0817.0,5.03,0.00,24.0,22.4,00.0,32.9,25.7,09.4,0003.7,0014.65,0008.78,0007.96
2023-02-06 04:21:00,,0817.0,4.96,0.00,24.0,22.5,00.0,32.9,25.7,09.4,0003.1,0014.88,0008.50,0007.67
2023-02-06 04:22:00,,0817.0,5.04,0.00,24.0,22.5,00.0,32.9,25.7,09.4,0000.0,0014.74,0008.18,0007.33
2023-02-06 04:23:00,,0817.2,4.96,0.00,24.0,22.5,00.0,32.9,25.8,09.6,0000.0,0014.06,0007.89,0007.04
2023-02-06 04:24:00,,0816.9,5.03,0.00,24.0,22.5,00.0,32.9,25.7,10.6,0000.0,0013.70,0007.87,0006.98
2023-02-06 04:25:00,,0816.9,4.96,0.00,24.0,22.5,00.0,32.9,25.7,10.9,0000.1,0013.79,0007.95,0007.04
2023-02-06 04:26:00,,0817.2,5.04,0.00,24.0,22.5,00.0,32.9,25.7,11.2,0000.2,0013.36,0007.98,0007.08
2023-02-06 04:27:00,,0817.1,5.01,0.00,24.0,22.4,00.0,32.9,25.7,11.3,0000.0,0013.09,0007.97,0007.09
2023-02-06 04:28:00,,0817.0,4.98,0.00,23.9,22.4,00.0,32.9,25.7,11.6,0000.0,0013.48,0007.95,0007.10
2023-02-06 04:29:00,,0816.6,5.03,0.00,23.9,22.4,00.0,32.9,25.7,12.0,0000.0,0013.60,0008.16,0007.26
2023-02-06 04:30:00,,0816.6,4.96,0.00,23.9,22.4,00.0,32.9,25.7,12.0,0000.0,0013.88,0008.46,0007.54
2023-02-06 04:31:00,,0816.8,5.04,0.00,23.9,22.5,00.0,32.9,25.7,11.7,0000.0,0014.61,0008.76,0007.86
2023-02-06 04:32:00,,0816.9,4.98,0.00,23.9,22.5,00.0,32.8,25.7,10.6,0000.0,0015.44,0008.89,0008.01
2023-02-06 04:33:00,,0816.6,5.01,0.00,23.9,22.5,00.0,32.8,25.6,10.1,0000.0,0015.80,0008.97,0008.07
2023-02-06 04:34:00,,0816.6,4.98,0.00,23.9,22.5,00.0,32.8,25.6,09.9,0000.0,0015.85,0008.95,0008.06
2023-02-06 04:35:00,,0816.6,5.02,0.00,23.9,22.5,00.0,32.8,25.6,09.8,0000.0,0015.47,0008.71,0007.88
2023-02-06 04:36:00,,0816.7,5.00,0.00,23.9,22.5,00.0,32.8,25.6,09.2,0000.0,0014.74,0008.30,0007.53
2023-02-06 04:37:00,,0816.5,4.99,0.00,23.9,22.5,00.0,32.8,25.6,09.2,0000.0,0014.35,0007.91,0007.16
2023-02-06 04:38:00,,0816.5,5.01,0.00,23.9,22.5,00.0,32.8,25.6,09.2,0000.0,0014.01,0007.53,0006.81
2023-02-06 04:39:00,,0816.5,5.01,0.00,23.9,22.4,00.0,32.8,25.6,09.0,0000.0,0013.12,0007.06,0006.34
2023-02-06 04:40:00,,0816.6,5.01,0.00,23.9,22.2,00.0,32.8,25.5,09.4,0000.0,0012.29,0006.60,0005.91
2023-02-06 04:41:00,,0816.6,4.99,0.00,23.8,22.1,00.0,32.8,25.5,10.5,0000.0,0012.11,0006.33,0005.65
2023-02-06 04:42:00,,0816.6,5.04,0.00,23.8,22.0,00.0,32.8,25.5,11.5,0000.0,0011.65,0006.23,0005.57
2023-02-06 04:43:00,,0816.5,4.96,0.00,23.8,22.0,00.0,32.8,25.5,12.3,0000.0,0010.76,0006.39,0005.72
2023-02-06 04:44:00,,0816.5,5.03,0.00,23.8,22.0,00.0,32.8,25.5,12.5,0000.0,0010.49,0006.69,0006.03
2023-02-06 04:45:00,,0816.5,4.96,0.00,23.8,22.0,00.0,32.7,25.5,12.5,0000.0,0011.27,0007.01,0006.37
2023-02-06 04:46:00,,0816.5,5.04,0.00,23.8,22.1,00.0,32.7,25.5,12.1,0000.0,0011.95,0007.32,0006.64
2023-02-06 04:47:00,,0816.5,4.97,0.00,23.7,22.1,00.0,32.7,25.5,11.7,0000.0,0012.39,0007.65,0006.92
2023-02-06 04:48:00,,0816.4,5.01,0.00,23.7,22.2,00.0,32.7,25.5,11.2,0000.0,0012.60,0007.91,0007.19
2023-02-06 04:49:00,,0816.4,5.04,0.00,23.7,22.2,00.0,32.7,25.5,10.4,0000.0,0012.66,0008.05,0007.34
2023-02-06 04:50:00,,0816.4,4.96,0.00,23.7,22.2,00.0,32.7,25.5,10.4,0000.0,0013.56,0008.25,0007.53
2023-02-06 04:51:00,,0816.5,5.03,0.00,23.7,22.2,00.0,32.7,25.5,10.3,0000.0,0013.97,0008.39,0007.68
2023-02-06 04:52:00,,0816.5,4.96,0.00,23.7,22.2,00.0,32.7,25.5,10.5,0001.2,0013.75,0008.39,0007.71
2023-02-06 04:53:00,,0816.4,5.02,0.00,23.7,22.1,00.0,32.7,25.5,10.2,0000.0,0014.30,0008.26,0007.56
2023-02-06 04:54:00,,0816.4,4.99,0.00,23.7,22.1,00.0,32.6,25.5,10.2,0000.0,0014.19,0007.99,0007.27
2023-02-06 04:55:00,,0816.3,5.01,0.00,23.7,22.0,00.0,32.6,25.4,10.2,0000.0,0014.01,0007.72,0006.96
2023-02-06 04:56:00,,0816.3,5.03,0.00,23.7,22.0,00.0,32.6,25.4,09.6,0000.0,0013.17,0007.33,0006.57
2023-02-06 04:57:00,,0816.3,4.97,0.00,23.7,22.1,00.0,32.6,25.4,09.3,0000.0,0012.42,0006.93,0006.16
2023-02-06 04:58:00,,0816.2,5.03,0.00,23.7,22.1,00.0,32.6,25.4,09.3,0000.0,0011.85,0006.49,0005.76
2023-02-06 04:59:00,,0816.3,4.96,0.00,23.6,22.1,00.0,32.6,25.4,09.2,0000.0,0011.45,0006.09,0005.36
